TimeEDT,TemperatureF,Dew PointF,Humidity,Sea Level PressureIn,VisibilityMPH,Wind Direction,Wind SpeedMPH,Gust SpeedMPH,PrecipitationIn,Events,Conditions,WindDirDegrees,DateUTC
12:10 AM,71.6,71.6,100,29.85,6.0,Calm,Calm,-,N/A,,Mostly Cloudy,0,2013-09-02 04:10:00
12:53 AM,71.1,71.1,100,29.82,9.0,Calm,Calm,-,N/A,,Mostly Cloudy,0,2013-09-02 04:53:00
1:51 AM,71.6,69.8,94,29.83,8.0,Calm,Calm,-,N/A,,Mostly Cloudy,0,2013-09-02 05:51:00
1:53 AM,72.0,70.0,93,29.80,9.0,Calm,Calm,-,N/A,,Mostly Cloudy,0,2013-09-02 05:53:00
2:53 AM,72.0,72.0,100,29.79,8.0,Calm,Calm,-,0.00,Rain,Light Rain,0,2013-09-02 06:53:00
3:53 AM,71.1,71.1,100,29.78,7.0,NE,3.5,-,0.03,Rain,Light Rain,50,2013-09-02 07:53:00
4:03 AM,71.6,69.8,94,29.81,8.0,Calm,Calm,-,0.01,Rain-Thunderstorm,Light Rain,0,2013-09-02 08:03:00
4:35 AM,71.6,71.6,100,29.81,4.0,North,3.5,-,0.08,Rain-Thunderstorm,Thunderstorms and Rain,360,2013-09-02 08:35:00
4:50 AM,69.8,69.8,100,29.81,3.0,North,3.5,-,0.13,Rain,Rain,350,2013-09-02 08:50:00
4:53 AM,70.0,70.0,100,29.77,4.0,North,3.5,-,0.14,Rain,Rain,10,2013-09-02 08:53:00
5:10 AM,69.8,69.8,100,29.80,2.5,Calm,Calm,-,0.07,Rain,Rain,0,2013-09-02 09:10:00
5:19 AM,69.8,69.8,100,29.81,2.0,Calm,Calm,-,0.11,Rain,Rain,0,2013-09-02 09:19:00
5:23 AM,69.8,69.8,100,29.81,2.5,Calm,Calm,-,0.12,Rain-Thunderstorm,Rain,0,2013-09-02 09:23:00
5:29 AM,69.8,69.8,100,29.81,3.0,Calm,Calm,-,0.14,Rain-Thunderstorm,Rain,0,2013-09-02 09:29:00
5:38 AM,69.8,69.8,100,29.82,2.5,Calm,Calm,-,0.18,Rain,Rain,0,2013-09-02 09:38:00
5:48 AM,69.8,69.8,100,29.82,5.0,Calm,Calm,-,0.19,Rain,Light Rain,0,2013-09-02 09:48:00
5:53 AM,70.0,70.0,100,29.79,7.0,Calm,Calm,-,0.19,Rain,Light Rain,0,2013-09-02 09:53:00
6:08 AM,69.8,69.8,100,29.82,4.0,Calm,Calm,-,0.05,Rain,Rain,0,2013-09-02 10:08:00
6:20 AM,69.8,69.8,100,29.80,5.0,NE,4.6,-,0.08,Rain,Light Rain,50,2013-09-02 10:20:00
6:53 AM,70.0,70.0,100,29.78,10.0,South,4.6,-,0.10,Rain,Light Rain,170,2013-09-02 10:53:00
7:14 AM,69.8,69.8,100,29.80,10.0,Calm,Calm,-,N/A,,Mostly Cloudy,0,2013-09-02 11:14:00
7:53 AM,71.1,71.1,100,29.78,10.0,Calm,Calm,-,N/A,,Overcast,0,2013-09-02 11:53:00
8:34 AM,71.6,71.6,100,29.82,10.0,Calm,Calm,-,N/A,,Overcast,0,2013-09-02 12:34:00
8:53 AM,71.1,71.1,100,29.79,10.0,South,4.6,-,N/A,,Overcast,190,2013-09-02 12:53:00
9:06 AM,71.6,71.6,100,29.81,10.0,Calm,Calm,-,N/A,,Overcast,0,2013-09-02 13:06:00
9:53 AM,72.0,70.0,93,29.78,10.0,Calm,Calm,-,0.01,,Overcast,0,2013-09-02 13:53:00
10:14 AM,71.6,71.6,100,29.81,10.0,Calm,Calm,-,N/A,,Overcast,0,2013-09-02 14:14:00
10:25 AM,71.6,71.6,100,29.81,10.0,Calm,Calm,-,N/A,,Overcast,0,2013-09-02 14:25:00
10:43 AM,73.4,71.6,94,29.81,10.0,Calm,Calm,-,N/A,,Overcast,0,2013-09-02 14:43:00
10:53 AM,73.0,72.0,96,29.78,10.0,Calm,Calm,-,N/A,,Overcast,0,2013-09-02 14:53:00
11:14 AM,73.4,71.6,94,29.81,10.0,Calm,Calm,-,N/A,,Overcast,0,2013-09-02 15:14:00
11:28 AM,73.4,71.6,94,29.80,10.0,Calm,Calm,-,N/A,,Overcast,0,2013-09-02 15:28:00
11:49 AM,73.4,69.8,88,29.80,10.0,WNW,3.5,-,N/A,,Overcast,290,2013-09-02 15:49:00
11:53 AM,73.9,71.1,91,29.77,10.0,Calm,Calm,-,N/A,,Overcast,0,2013-09-02 15:53:00
12:41 PM,75.2,69.8,83,29.79,10.0,Calm,Calm,-,N/A,,Overcast,0,2013-09-02 16:41:00
12:53 PM,73.9,72.0,93,29.76,10.0,Calm,Calm,-,N/A,,Overcast,0,2013-09-02 16:53:00
1:02 PM,73.4,71.6,94,29.78,9.0,Calm,Calm,-,0.00,Rain,Light Rain,0,2013-09-02 17:02:00
1:25 PM,75.2,71.6,89,29.78,10.0,Calm,Calm,-,0.00,,Mostly Cloudy,0,2013-09-02 17:25:00
1:53 PM,75.9,72.0,87,29.74,10.0,Calm,Calm,-,0.00,,Mostly Cloudy,0,2013-09-02 17:53:00
2:21 PM,77.0,71.6,83,29.76,10.0,Calm,Calm,-,N/A,,Mostly Cloudy,0,2013-09-02 18:21:00
2:43 PM,78.8,73.4,83,29.75,10.0,South,4.6,-,N/A,,Scattered Clouds,180,2013-09-02 18:43:00
2:53 PM,79.0,73.0,82,29.71,10.0,South,6.9,-,N/A,,Partly Cloudy,190,2013-09-02 18:53:00
3:53 PM,80.1,72.0,76,29.70,10.0,South,4.6,-,N/A,,Mostly Cloudy,190,2013-09-02 19:53:00
4:53 PM,77.0,72.0,84,29.68,10.0,Calm,Calm,-,N/A,,Mostly Cloudy,0,2013-09-02 20:53:00
5:11 PM,77.0,73.4,89,29.71,10.0,SE,3.5,-,0.00,Rain,Light Rain,130,2013-09-02 21:11:00
5:23 PM,75.2,73.4,94,29.71,10.0,Calm,Calm,-,0.01,Rain,Light Rain,0,2013-09-02 21:23:00
5:53 PM,77.0,71.1,82,29.68,10.0,SSE,3.5,-,0.01,,Mostly Cloudy,150,2013-09-02 21:53:00
6:20 PM,75.2,71.6,89,29.70,10.0,Variable,4.6,-,N/A,,Overcast,0,2013-09-02 22:20:00
6:30 PM,75.2,71.6,89,29.70,10.0,SSE,4.6,-,N/A,,Overcast,150,2013-09-02 22:30:00
6:53 PM,75.0,72.0,90,29.69,10.0,Calm,Calm,-,N/A,,Mostly Cloudy,0,2013-09-02 22:53:00
7:53 PM,72.0,72.0,100,29.70,10.0,Calm,Calm,-,N/A,,Mostly Cloudy,0,2013-09-02 23:53:00
8:11 PM,73.4,71.6,94,29.72,10.0,Calm,Calm,-,N/A,,Overcast,0,2013-09-03 00:11:00
8:44 PM,71.6,69.8,94,29.72,10.0,Calm,Calm,-,N/A,,Mostly Cloudy,0,2013-09-03 00:44:00
8:53 PM,71.1,71.1,100,29.69,10.0,Calm,Calm,-,N/A,,Mostly Cloudy,0,2013-09-03 00:53:00
9:00 PM,71.6,71.6,100,29.72,10.0,Calm,Calm,-,N/A,,Mostly Cloudy,0,2013-09-03 01:00:00
9:07 PM,69.8,69.8,100,29.72,9.0,Calm,Calm,-,N/A,,Mostly Cloudy,0,2013-09-03 01:07:00
9:53 PM,71.1,71.1,100,29.71,10.0,Calm,Calm,-,N/A,,Overcast,0,2013-09-03 01:53:00
10:15 PM,69.8,69.8,100,29.73,10.0,Calm,Calm,-,N/A,Thunderstorm,Overcast,0,2013-09-03 02:15:00
10:27 PM,71.6,71.6,100,29.74,2.5,SW,5.8,-,0.06,Rain-Thunderstorm,Heavy Rain,230,2013-09-03 02:27:00
10:35 PM,71.6,69.8,94,29.74,3.0,WSW,4.6,-,0.09,Rain-Thunderstorm,Light Rain,240,2013-09-03 02:35:00
10:53 PM,69.1,69.1,100,29.70,8.0,ENE,5.8,-,0.10,Rain-Thunderstorm,Light Thunderstorms and Rain,70,2013-09-03 02:53:00
11:14 PM,69.8,69.8,100,29.72,10.0,South,3.5,-,0.01,Rain,Light Rain,170,2013-09-03 03:14:00
11:53 PM,69.1,68.0,96,29.68,10.0,Calm,Calm,-,0.01,Rain,Light Rain,0,2013-09-03 03:53:00